De Queen, AR

8:59 PM CDT on September 25, 2016 (GMT -0500)
Helms Sevier County

Weather History for KDEQ - December, 2012

Change the Weather History Date:

Sunday, December 30, 2012

  Actual Average Record
Temperature  
Mean Temperature 31 °F 42 °F  
Max Temperature 44 °F 54 °F 78 °F (1951)
Min Temperature 17 °F 30 °F 4 °F (1983)
Degree Days  
Heating Degree Days 34 23  
Month to date heating degree days 542 659  
Since 1 July heating degree days 1099 1185  
Cooling Degree Days 0 0  
Month to date cooling degree days 14 0  
Year to date cooling degree days 2185 1941  
Moisture  
Dew Point 23 °F    
Average Humidity 67    
Maximum Humidity 92    
Minimum Humidity 41    
Precipitation  
Precipitation T in 0.16 in 1.28 in (2006)
Month to date precipitation 3.59 4.17  
Year to date precipitation 28.28 48.80  
Snow  
Snow 0.00 in - - ()
Month to date snowfall 4.5  
Since 1 July snowfall 4.5  
Snow Depth 0.00 in    
Sea Level Pressure  
Sea Level Pressure 30.41 in    
Wind  
Wind Speed 2 mph (ESE)    
Max Wind Speed 8 mph    
Max Gust Speed 11 mph    
Visibility 9 miles    
Events      
T = Trace of Precipitation, MM = Missing Value Source: NWS Daily Summary

Daily Weather History Graph

Daily Weather History Graph

Search for Another Location

Airport or City:

Trip Planner

Search our weather history database for the weather conditions in past years. The results will help you decide how hot, cold, wet, or windy it might be!

Date:

Astronomy

Dec. 30, 2012 Rise Set
Actual Time 7:22 AM CST 5:18 PM CST
Civil Twilight 6:55 AM CST 5:45 PM CST
Nautical Twilight 6:23 AM CST 6:17 PM CST
Astronomical Twilight 5:53 AM CST 6:47 PM CST
Moon 7:42 PM CST (12/30) 8:38 AM CST (12/30)
Length of Visible Light 10h 50m
Length of Day
9h 55m
Waning Gibbous, 95% of the Moon is Illuminated
Dec 30
Waning Gibbous
Jan 4
Last Quarter
Jan 11
New
Jan 18
First Quarter
Jan 26
Full

Hourly Weather History & Observations

Time (CST) Temp. Windchill Dew Point Humidity Pressure Visibility Wind Dir Wind Speed Gust Speed Precip Events Conditions
12:53 AM 21.0 °F - 18.0 °F 88% 30.45 in 10.0 mi Calm Calm - N/A   Clear
1:53 AM 19.9 °F 14.9 °F 18.0 °F 92% 30.46 in 10.0 mi WSW 3.5 mph - N/A   Clear
2:53 AM 19.9 °F - 17.1 °F 89% 30.48 in 10.0 mi Calm Calm - N/A   Clear
3:53 AM 19.0 °F - 17.1 °F 92% 30.47 in 10.0 mi Calm Calm - N/A   Clear
4:53 AM 18.0 °F - 15.1 °F 88% 30.47 in 9.0 mi Calm Calm - N/A   Clear
5:53 AM 17.1 °F - 15.1 °F 92% 30.47 in 9.0 mi Calm Calm - N/A   Clear
6:53 AM 17.1 °F - 14.0 °F 88% 30.48 in 8.0 mi Calm Calm - N/A   Clear
7:53 AM 18.0 °F - 16.0 °F 92% 30.50 in 7.0 mi Calm Calm - N/A   Clear
8:53 AM 23.0 °F 17.0 °F 19.9 °F 88% 30.50 in 7.0 mi East 4.6 mph - N/A   Clear
9:53 AM 30.0 °F 26.5 °F 25.0 °F 82% 30.50 in 7.0 mi ENE 3.5 mph - N/A   Clear
10:53 AM 34.0 °F - 26.1 °F 73% 30.51 in 8.0 mi Calm Calm - N/A   Clear
11:53 AM 39.0 °F 36.8 °F 25.0 °F 57% 30.46 in 10.0 mi ENE 3.5 mph - N/A   Clear
12:53 PM 41.0 °F 39.0 °F 25.0 °F 53% 30.43 in 10.0 mi Variable 3.5 mph - N/A   Clear
1:53 PM 42.1 °F 40.2 °F 23.0 °F 47% 30.40 in 10.0 mi SSW 3.5 mph - N/A   Clear
2:53 PM 43.0 °F - 23.0 °F 45% 30.38 in 10.0 mi Calm Calm - N/A   Clear
3:53 PM 44.1 °F 42.5 °F 23.0 °F 43% 30.37 in 10.0 mi SE 3.5 mph - N/A   Clear
4:53 PM 43.0 °F 39.5 °F 24.1 °F 47% 30.33 in 10.0 mi East 5.8 mph - N/A   Clear
5:53 PM 41.0 °F 39.0 °F 24.1 °F 51% 30.33 in 10.0 mi East 3.5 mph - N/A   Clear
6:53 PM 37.9 °F - 26.1 °F 62% 30.34 in 10.0 mi Calm Calm - N/A   Clear
7:53 PM 37.0 °F - 30.0 °F 76% 30.33 in 10.0 mi Calm Calm - N/A   Mostly Cloudy
8:53 PM 37.0 °F - 30.9 °F 79% 30.32 in 10.0 mi Calm Calm - N/A   Mostly Cloudy
9:53 PM 37.9 °F 35.5 °F 33.1 °F 83% 30.32 in 10.0 mi East 3.5 mph - 0.00 in   Overcast
10:53 PM 37.9 °F - 34.0 °F 86% 30.30 in 10.0 mi Calm Calm - N/A   Overcast
11:53 PM 37.9 °F - 34.0 °F 86% 30.28 in 10.0 mi Calm Calm - 0.00 in   Overcast